Mitchell, SD

6:45 AM CST on November 15, 2019 (GMT -0600)
Mitchell Municipal

Weather History for KMHE - May, 2019

Change the Weather History Date:

Thursday, May 30, 2019

  Actual Average Record
Temperature  
Mean Temperature 67 °F 64 °F  
Max Temperature 83 °F 75 °F 108 °F (1934)
Min Temperature 51 °F 53 °F 30 °F (1897)
Degree Days  
Heating Degree Days 0 3  
Month to date heating degree days 291 206  
Since 1 July heating degree days 7979 7206  
Cooling Degree Days 2 2  
Month to date cooling degree days 9 34  
Year to date cooling degree days 9 36  
Growing Degree Days 17 (Base 50)    
Moisture  
Dew Point 55 °F    
Average Humidity 67    
Maximum Humidity 96    
Minimum Humidity 37    
Precipitation  
Precipitation 0.00 in 0.16 in 1.48 in (2004)
Month to date precipitation 4.23 2.78  
Year to date precipitation 11.81 6.58  
Snow  
Snow 0.00 in - 0.00 in ()
Month to date snowfall 0.0  
Since 1 July snowfall 67.6  
Snow Depth 0.00 in    
Sea Level Pressure  
Sea Level Pressure 29.82 in    
Wind  
Wind Speed 6 mph (West)    
Max Wind Speed 10 mph    
Max Gust Speed 14 mph    
Visibility 10 miles    
Events      
T = Trace of Precipitation, MM = Missing Value Source: NWS Daily Summary

Daily Weather History Graph

Daily Weather History Graph

Search for Another Location

Airport or City:

Astronomy

May. 30, 2019 Rise Set
Actual Time 5:54 AM CDT 9:05 PM CDT
Civil Twilight 5:19 AM CDT 9:40 PM CDT
Nautical Twilight 4:34 AM CDT 10:25 PM CDT
Astronomical Twilight 3:39 AM CDT 11:20 PM CDT
Moon 4:11 AM CDT (5/30) 5:05 PM CDT (5/30)
Length of Visible Light 16h 21m
Length of Day
15h 11m
Waning Crescent, 15% of the Moon is Illuminated
May 30
Waning Crescent
Jun 3
New
Jun 10
First Quarter
Jun 17
Full
Jun 25
Last Quarter

Hourly Weather History & Observations

Time (CDT) Temp. Heat Index Dew Point Humidity Pressure Visibility Wind Dir Wind Speed Gust Speed Precip Events Conditions
12:53 AM 57.9 °F - 53.1 °F 84% 29.76 in 10.0 mi South 3.5 mph - N/A   Clear
1:53 AM 57.0 °F - 53.1 °F 87% 29.75 in 10.0 mi SW 4.6 mph - N/A   Clear
2:53 AM 54.0 °F - 51.1 °F 90% 29.75 in 10.0 mi West 4.6 mph - N/A   Clear
3:53 AM 54.0 °F - 52.0 °F 93% 29.75 in 10.0 mi Calm Calm - N/A   Clear
4:53 AM 52.0 °F - 50.0 °F 93% 29.77 in 6.0 mi Calm Calm - N/A   Clear
5:53 AM 53.1 °F - 50.0 °F 89% 29.78 in 9.0 mi West 4.6 mph - N/A   Clear
6:53 AM 55.0 °F - 51.1 °F 86% 29.79 in 9.0 mi West 4.6 mph - N/A   Partly Cloudy
7:53 AM 57.9 °F - 53.1 °F 84% 29.81 in 9.0 mi West 5.8 mph - N/A   Clear
8:53 AM 59.0 °F - 53.1 °F 81% 29.83 in 9.0 mi West 3.5 mph - N/A   Clear
9:53 AM 64.0 °F - 54.0 °F 70% 29.84 in 8.0 mi Calm Calm - N/A   Clear
10:53 AM 69.1 °F - 55.0 °F 61% 29.84 in 9.0 mi North - - N/A   Clear
11:53 AM 73.9 °F - 54.0 °F 50% 29.84 in 9.0 mi North - - N/A   Clear
12:53 PM 77.0 °F - 55.9 °F 48% 29.84 in 9.0 mi WNW 8.1 mph - N/A   Clear
1:53 PM 80.1 °F 79.9 °F 53.1 °F 39% 29.83 in 10.0 mi NNW 4.6 mph - N/A   Clear
2:53 PM 81.0 °F 80.7 °F 55.0 °F 41% 29.84 in 10.0 mi West 4.6 mph - N/A   Clear
3:53 PM 82.9 °F 81.9 °F 54.0 °F 37% 29.83 in 10.0 mi WNW 6.9 mph - N/A   Clear
4:53 PM 82.0 °F 81.7 °F 57.0 °F 42% 29.83 in 10.0 mi WNW 5.8 mph - N/A   Clear
5:53 PM 82.0 °F 81.7 °F 57.0 °F 42% 29.83 in 10.0 mi NW 8.1 mph - N/A   Clear
6:53 PM 80.1 °F 80.9 °F 60.1 °F 50% 29.82 in 10.0 mi West 9.2 mph - N/A   Clear
7:53 PM 77.0 °F - 59.0 °F 54% 29.84 in 10.0 mi West 6.9 mph - N/A   Clear
8:53 PM 73.9 °F - 59.0 °F 59% 29.84 in 10.0 mi West 8.1 mph - N/A   Clear
9:53 PM 71.1 °F - 60.1 °F 68% 29.86 in 10.0 mi WSW 6.9 mph - N/A   Clear
10:53 PM 69.1 °F - 60.1 °F 73% 29.87 in 10.0 mi West 8.1 mph - N/A   Clear
11:53 PM 66.9 °F - 57.9 °F 73% 29.86 in 10.0 mi WSW 8.1 mph - N/A   Clear